Location: *
(50.8512°N, 5.6907°E)
Time: 09:07:47
(UTC+00:00)

Cosmos 1850 Rocket - Pass Details

Date: 09 April 2020
Orbit: 754 x 786 km, 74.0° (Epoch: 24 May)

Event Time Altitude Azimuth Distance (km) Brightness Sun altitude
Exits shadow 20:24:21 17° 179° (S) 1,830 5.6 -17.8°
Maximum altitude 20:28:09 54° 108° (ESE) 921 4.0 -18.3°
Drops below altitude 10° 20:33:11 10° 32° (NNE) 2,292 6.6 -18.9°
Sets 20:35:36 0° 28° (NNE) 3,223 7.4 -19.2°
